DUBAISAT-1

Last updated on Fri Jul 11 2025 00:02:27 GMT+0000 (Coordinated Universal Time)

1 35682U 09041B 25191.64175560 .00000668 00000+0 10901-3 0 9993 2 35682 97.9590 324.8868 0012093 88.2826 271.9768 14.74030531854761
UTC large
Height (km)
Speed (km/s)
/
Latitude / Longitude
Inclination (degrees)
Orbital Period (minutes)
Azimuth
Elevation
Range (km)
Doppler Factor

Next 0 passes for location: London (51.5072 / 0.1276)

Sorry there are no passes over London.